Overview Statistics Trail Chart Weather Telemetry Raw packets
 

This is the latest recevied weather packets stored in our database for station/object KC4JIR. If no packets are shown the sender has not sent any weather packets the latest 10 day(s).

<< 32 33 34 35 36 37 38 >>
Time Temp. Humidity Pressure Rain* Wind** Luminosity Snow
1788395318 28.89° C 80% 1013.8 hPa 0 mm - 0 W/m² -
1788395008 28.89° C 79% 1013.8 hPa 0 mm - 0 W/m² -
1788394702 29.44° C 78% 1013.8 hPa 0 mm - 0 W/m² -
1788394397 29.44° C 79% 1013.7 hPa 0 mm - 0 W/m² -
1788394097 29.44° C 77% 1013.7 hPa 0 mm - 0 W/m² -
1788393792 29.44° C 78% 1013.5 hPa 0 mm - 0 W/m² -
1788393490 30° C 77% 1013.3 hPa 0 mm - 0 W/m² -
1788393186 30° C 76% 1013.4 hPa 0 mm - 1 W/m² -
1788392880 30° C 76% 1013.5 hPa 0 mm - 3 W/m² -
1788392579 30° C 75% 1013.4 hPa 0 mm - 6 W/m² -
1788392274 30.56° C 75% 1013.5 hPa 0 mm - 9 W/m² -
1788391973 30.56° C 74% 1013.2 hPa 0 mm - 12 W/m² -
1788391672 30.56° C 74% 1013.4 hPa 0 mm - 15 W/m² -
1788391367 31.11° C 74% 1013.2 hPa 0 mm - 19 W/m² -
1788391066 31.11° C 73% 1013.4 hPa 0 mm - 22 W/m² -
1788390762 31.11° C 72% 1013.5 hPa 0 mm - 24 W/m² -
1788390462 31.67° C 71% 1013.3 hPa 0 mm - 27 W/m² -
1788390161 31.67° C 71% 1013.4 hPa 0 mm - 29 W/m² -
1788389855 32.22° C 69% 1013.4 hPa 0 mm - 32 W/m² -
1788389550 32.78° C 69% 1013.5 hPa 0 mm - 49 W/m² -
1788389249 32.78° C 68% 1013.3 hPa 0 mm - 38 W/m² -
1788388944 33.89° C 67% 1013.5 hPa 0 mm - 47 W/m² -
1788388641 33.89° C 63% 1013.4 hPa 0 mm - 88 W/m² -
1788388339 34.44° C 62% 1013.4 hPa 0 mm - 101 W/m² -
1788388038 35° C 57% 1013.4 hPa 0 mm - 46 W/m² -

* Rain latest hour (hover to see other rain measurements)
** Current wind speed in m/s (hover to see current wind gust speed)